BOX237 EDDF-EHAM

Flight info

Callsign BOX237
Flight time 0h 46m
Altitude 24000
Route MARUN7F/25C MARUN Y152 ARPEG Z850 ABILU DCT NORKU
Aircraft B77L/H-SDE1E2E3FGHIJ2J3J4J5M1RWXY/LB1D1

Departure

Time 2026-05-07 18:37
Airport Frankfurt Main Airport (EDDF)

Arrival

Time 2026-05-07 19:23
Airport Amsterdam Airport Schiphol (EHAM)
Time Latitude Longitude Altitude Speed Heading
2026-05-07 18:02 50.04124 8.54742 350 ft 0 kts 68°
2026-05-07 18:27 50.04124 8.54740 350 ft 3 kts 60°
2026-05-07 18:27 50.04140 8.54753 351 ft 4 kts 27°
2026-05-07 18:27 50.04128 8.54741 359 ft 4 kts 53°
2026-05-07 18:28 50.04120 8.54717 360 ft 4 kts 77°
2026-05-07 18:28 50.04115 8.54676 360 ft 4 kts 78°
2026-05-07 18:28 50.04110 8.54635 358 ft 4 kts 83°
2026-05-07 18:28 50.04108 8.54606 360 ft 1 kts 90°
2026-05-07 18:31 50.04106 8.54612 360 ft 4 kts 110°
2026-05-07 18:31 50.04056 8.54645 356 ft 9 kts 161°
2026-05-07 18:32 50.03998 8.54677 356 ft 9 kts 159°
2026-05-07 18:32 50.03984 8.54686 358 ft 0 kts 159°
2026-05-07 18:32 50.03962 8.54729 356 ft 9 kts 107°
2026-05-07 18:32 50.03973 8.54826 357 ft 3 kts 71°
2026-05-07 18:33 50.03981 8.54862 358 ft 12 kts 69°
2026-05-07 18:33 50.03960 8.54974 357 ft 12 kts 146°
2026-05-07 18:33 50.03882 8.55021 357 ft 12 kts 165°
2026-05-07 18:33 50.03815 8.54960 357 ft 12 kts 243°
2026-05-07 18:34 50.03783 8.54834 357 ft 13 kts 249°
2026-05-07 18:34 50.03746 8.54681 358 ft 16 kts 249°
2026-05-07 18:34 50.03708 8.54523 354 ft 16 kts 250°
2026-05-07 18:34 50.03671 8.54367 356 ft 14 kts 248°
2026-05-07 18:35 50.03602 8.54317 357 ft 10 kts 166°
2026-05-07 18:35 50.03591 8.54322 354 ft 0 kts 162°
2026-05-07 18:35 50.03567 8.54335 357 ft 8 kts 160°
2026-05-07 18:36 50.03520 8.54361 357 ft 7 kts 160°
2026-05-07 18:36 50.03493 8.54415 357 ft 7 kts 88°
2026-05-07 18:36 50.03496 8.54432 358 ft 0 kts 73°
2026-05-07 18:36 50.03496 8.54433 358 ft 2 kts 73°
2026-05-07 18:37 50.03533 8.54596 357 ft 43 kts 70°
2026-05-07 18:37 50.03762 8.55554 355 ft 144 kts 69°
2026-05-07 18:37 50.04210 8.57386 728 ft 196 kts 69°
2026-05-07 18:37 50.04691 8.59383 1861 ft 194 kts 69°
2026-05-07 18:38 50.05163 8.61395 2516 ft 207 kts 69°
2026-05-07 18:38 50.05650 8.63634 2771 ft 234 kts 70°
2026-05-07 18:38 50.06190 8.66151 3228 ft 252 kts 70°
2026-05-07 18:38 50.06762 8.68775 3966 ft 259 kts 68°
2026-05-07 18:39 50.07735 8.71113 4606 ft 262 kts 39°
2026-05-07 18:39 50.09304 8.72543 5011 ft 264 kts 22°
2026-05-07 18:39 50.11013 8.73684 4995 ft 268 kts 22°
2026-05-07 18:39 50.12728 8.74818 5217 ft 267 kts 21°
2026-05-07 18:40 50.14444 8.75955 6077 ft 269 kts 21°
2026-05-07 18:40 50.16170 8.77106 6910 ft 272 kts 22°
2026-05-07 18:40 50.17929 8.78285 7709 ft 276 kts 22°
2026-05-07 18:40 50.19707 8.79483 8517 ft 280 kts 22°
2026-05-07 18:41 50.21484 8.80684 9290 ft 284 kts 22°
2026-05-07 18:41 50.23308 8.81922 10072 ft 288 kts 22°
2026-05-07 18:41 50.25180 8.83193 10618 ft 301 kts 22°
2026-05-07 18:41 50.27200 8.84457 10770 ft 323 kts 13°
2026-05-07 18:42 50.29491 8.84658 10942 ft 340 kts 352°
2026-05-07 18:42 50.31923 8.84113 11202 ft 362 kts 350°
2026-05-07 18:42 50.34454 8.83516 11835 ft 373 kts 351°
2026-05-07 18:42 50.37051 8.82917 12633 ft 380 kts 351°
2026-05-07 18:43 50.39680 8.82328 13540 ft 384 kts 351°
2026-05-07 18:43 50.42314 8.81753 14357 ft 389 kts 351°
2026-05-07 18:43 50.45011 8.81173 15136 ft 393 kts 351°
2026-05-07 18:43 50.47730 8.80593 15945 ft 397 kts 351°
2026-05-07 18:44 50.50478 8.80007 16717 ft 401 kts 351°
2026-05-07 18:44 50.53267 8.79412 17482 ft 406 kts 351°
2026-05-07 18:44 50.56054 8.78649 18168 ft 409 kts 344°
2026-05-07 18:44 50.58744 8.77125 18796 ft 413 kts 333°
2026-05-07 18:45 50.61250 8.74901 19484 ft 414 kts 326°
2026-05-07 18:45 50.63665 8.72384 20174 ft 417 kts 324°
2026-05-07 18:45 50.66060 8.69774 20812 ft 421 kts 324°
2026-05-07 18:45 50.68467 8.67116 21442 ft 425 kts 323°
2026-05-07 18:46 50.70742 8.64110 22038 ft 428 kts 314°
2026-05-07 18:46 50.72780 8.60669 22664 ft 431 kts 310°
2026-05-07 18:46 50.74722 8.57107 23278 ft 435 kts 309°
2026-05-07 18:46 50.76680 8.53430 23834 ft 439 kts 309°
2026-05-07 18:47 50.78644 8.49717 24088 ft 444 kts 308°
2026-05-07 18:47 50.80734 8.46045 24064 ft 452 kts 315°
2026-05-07 18:47 50.83203 8.42901 24064 ft 457 kts 325°
2026-05-07 18:47 50.85978 8.40443 24069 ft 458 kts 333°
2026-05-07 18:48 50.88906 8.38461 24081 ft 458 kts 337°
2026-05-07 18:48 50.91900 8.36678 24077 ft 458 kts 338°
2026-05-07 18:48 50.94888 8.34909 24071 ft 458 kts 338°
2026-05-07 18:48 50.97822 8.33092 24077 ft 458 kts 337°
2026-05-07 18:49 51.00776 8.31202 24079 ft 457 kts 335°
2026-05-07 18:49 51.03639 8.29022 24088 ft 456 kts 329°
2026-05-07 18:49 51.06393 8.26518 24083 ft 456 kts 328°
2026-05-07 18:49 51.09143 8.24017 24087 ft 456 kts 329°
2026-05-07 18:50 51.11912 8.21530 24092 ft 457 kts 329°
2026-05-07 18:50 51.14693 8.19047 24088 ft 457 kts 329°
2026-05-07 18:50 51.17468 8.16572 24084 ft 457 kts 329°
2026-05-07 18:50 51.20246 8.14090 24089 ft 458 kts 329°
2026-05-07 18:51 51.23019 8.11606 24087 ft 458 kts 329°
2026-05-07 18:51 51.25798 8.09113 24093 ft 458 kts 329°
2026-05-07 18:51 51.28575 8.06617 24092 ft 458 kts 329°
2026-05-07 18:51 51.31317 8.04147 24090 ft 458 kts 329°
2026-05-07 18:52 51.34086 8.01651 24085 ft 458 kts 329°
2026-05-07 18:52 51.36865 7.99142 24085 ft 458 kts 329°
2026-05-07 18:52 51.39640 7.96633 24083 ft 457 kts 329°
2026-05-07 18:52 51.42338 7.93940 24083 ft 456 kts 323°
2026-05-07 18:53 51.44903 7.90936 24088 ft 455 kts 322°
2026-05-07 18:53 51.47410 7.87924 24083 ft 455 kts 322°
2026-05-07 18:53 51.49967 7.84829 24082 ft 455 kts 322°
2026-05-07 18:53 51.52495 7.81772 24077 ft 455 kts 322°
2026-05-07 18:54 51.54999 7.78754 24077 ft 455 kts 322°
2026-05-07 18:54 51.57542 7.75697 24080 ft 455 kts 322°
2026-05-07 18:54 51.60080 7.72652 24081 ft 455 kts 322°
2026-05-07 18:54 51.62621 7.69603 24080 ft 455 kts 322°
2026-05-07 18:55 51.65152 7.66563 24081 ft 455 kts 322°
2026-05-07 18:55 51.67652 7.63558 24084 ft 455 kts 322°
2026-05-07 18:55 51.70192 7.60499 24082 ft 455 kts 322°
2026-05-07 18:55 51.72725 7.57444 24088 ft 455 kts 322°
2026-05-07 18:56 51.75260 7.54381 24092 ft 455 kts 322°
2026-05-07 18:56 51.77800 7.51309 24093 ft 455 kts 322°
2026-05-07 18:56 51.80333 7.48239 24102 ft 455 kts 322°
2026-05-07 18:56 51.82870 7.45160 24101 ft 455 kts 322°
2026-05-07 18:57 51.85401 7.42085 24101 ft 455 kts 322°
2026-05-07 18:57 51.87932 7.39004 24101 ft 455 kts 321°
2026-05-07 18:57 51.90427 7.35964 24100 ft 455 kts 321°
2026-05-07 18:57 51.92957 7.32876 24102 ft 455 kts 321°
2026-05-07 18:58 51.95482 7.29791 24101 ft 455 kts 321°
2026-05-07 18:58 51.98013 7.26693 24100 ft 455 kts 321°
2026-05-07 18:58 52.00535 7.23601 24098 ft 455 kts 321°
2026-05-07 18:58 52.03065 7.20496 24100 ft 455 kts 321°
2026-05-07 18:59 52.05589 7.17393 24098 ft 455 kts 321°
2026-05-07 18:59 52.08114 7.14284 24095 ft 455 kts 321°
2026-05-07 18:59 52.10641 7.11168 24096 ft 455 kts 321°
2026-05-07 18:59 52.13166 7.08050 24095 ft 455 kts 321°
2026-05-07 19:00 52.15685 7.04935 24099 ft 455 kts 321°
2026-05-07 19:00 52.18213 7.01805 24095 ft 455 kts 321°
2026-05-07 19:00 52.20732 6.98680 24097 ft 455 kts 321°
2026-05-07 19:00 52.23053 6.95286 24096 ft 452 kts 310°
2026-05-07 19:01 52.25010 6.91309 24101 ft 445 kts 305°
2026-05-07 19:01 52.26678 6.87103 23523 ft 442 kts 298°
2026-05-07 19:01 52.27991 6.82683 22732 ft 424 kts 292°
2026-05-07 19:01 52.28985 6.78181 22197 ft 418 kts 286°
2026-05-07 19:02 52.29819 6.73644 21650 ft 414 kts 286°
2026-05-07 19:02 52.30637 6.69211 21150 ft 411 kts 286°
2026-05-07 19:02 52.31463 6.64754 20637 ft 407 kts 286°
2026-05-07 19:02 52.32284 6.60335 20138 ft 404 kts 286°
2026-05-07 19:03 52.33102 6.55944 19636 ft 402 kts 286°
2026-05-07 19:03 52.33913 6.51588 19132 ft 399 kts 286°
2026-05-07 19:03 52.34720 6.47253 18641 ft 397 kts 286°
2026-05-07 19:03 52.35521 6.42941 18098 ft 395 kts 286°
2026-05-07 19:04 52.36317 6.38650 17554 ft 392 kts 286°
2026-05-07 19:04 52.37104 6.34394 17044 ft 389 kts 286°
2026-05-07 19:04 52.37883 6.30168 16541 ft 386 kts 286°
2026-05-07 19:04 52.38654 6.25974 16057 ft 383 kts 286°
2026-05-07 19:05 52.39407 6.21872 15574 ft 380 kts 286°
2026-05-07 19:05 52.40164 6.17741 15096 ft 377 kts 286°
2026-05-07 19:05 52.40913 6.13648 14621 ft 374 kts 286°
2026-05-07 19:05 52.41656 6.09579 14147 ft 371 kts 286°
2026-05-07 19:06 52.42390 6.05545 13649 ft 368 kts 286°
2026-05-07 19:06 52.43841 5.97550 12655 ft 361 kts 286°
2026-05-07 19:06 52.44545 5.93664 12198 ft 358 kts 286°
2026-05-07 19:07 52.45246 5.89780 11738 ft 354 kts 286°
2026-05-07 19:07 52.45940 5.85928 11291 ft 350 kts 286°
2026-05-07 19:07 52.46619 5.82150 11020 ft 333 kts 286°
2026-05-07 19:07 52.47246 5.78657 10778 ft 305 kts 286°
2026-05-07 19:08 52.47826 5.75421 10372 ft 287 kts 286°
2026-05-07 19:08 52.48384 5.72299 9912 ft 282 kts 286°
2026-05-07 19:08 52.48926 5.69269 9336 ft 270 kts 286°
2026-05-07 19:08 52.49448 5.66344 8752 ft 268 kts 286°
2026-05-07 19:09 52.49970 5.63405 8336 ft 268 kts 285°
2026-05-07 19:09 52.50493 5.60461 7894 ft 269 kts 285°
2026-05-07 19:09 52.50830 5.57473 7345 ft 267 kts 263°
2026-05-07 19:09 52.50311 5.54612 7174 ft 262 kts 241°
2026-05-07 19:10 52.49370 5.51973 6897 ft 274 kts 238°
2026-05-07 19:10 52.48377 5.49299 6376 ft 273 kts 237°
2026-05-07 19:10 52.47404 5.46693 5830 ft 269 kts 237°
2026-05-07 19:10 52.46431 5.44086 5335 ft 270 kts 237°
2026-05-07 19:11 52.45437 5.41416 4866 ft 278 kts 237°
2026-05-07 19:11 52.44447 5.38751 4343 ft 267 kts 238°
2026-05-07 19:11 52.43485 5.36158 4171 ft 267 kts 237°
2026-05-07 19:11 52.42514 5.33540 4026 ft 268 kts 238°
2026-05-07 19:12 52.41557 5.30958 3997 ft 263 kts 238°
2026-05-07 19:12 52.40613 5.28411 3990 ft 260 kts 238°
2026-05-07 19:12 52.39666 5.25860 4012 ft 263 kts 238°
2026-05-07 19:12 52.38709 5.23281 4016 ft 267 kts 238°
2026-05-07 19:13 52.37741 5.20678 4014 ft 269 kts 238°
2026-05-07 19:13 52.36769 5.18062 3999 ft 268 kts 238°
2026-05-07 19:13 52.35817 5.15502 3994 ft 266 kts 238°
2026-05-07 19:13 52.34853 5.12926 4000 ft 265 kts 237°
2026-05-07 19:14 52.33890 5.10369 4002 ft 264 kts 237°
2026-05-07 19:14 52.32927 5.07814 3998 ft 263 kts 237°
2026-05-07 19:14 52.31965 5.05268 3998 ft 263 kts 237°
2026-05-07 19:14 52.31003 5.02728 4009 ft 263 kts 237°
2026-05-07 19:15 52.30039 5.00181 4007 ft 264 kts 237°
2026-05-07 19:15 52.29072 4.97628 4005 ft 265 kts 237°
2026-05-07 19:15 52.28429 4.95927 4006 ft 266 kts 237°
2026-05-07 19:15 52.27128 4.92490 4008 ft 266 kts 237°
2026-05-07 19:16 52.26482 4.90785 4002 ft 267 kts 237°
2026-05-07 19:16 52.25504 4.88208 4001 ft 267 kts 237°
2026-05-07 19:16 52.24526 4.85633 3998 ft 267 kts 237°
2026-05-07 19:16 52.23548 4.83058 3996 ft 267 kts 237°
2026-05-07 19:17 52.22568 4.80485 4001 ft 266 kts 237°
2026-05-07 19:17 52.21592 4.77919 3998 ft 266 kts 237°
2026-05-07 19:17 52.20630 4.75385 3940 ft 266 kts 237°
2026-05-07 19:17 52.19657 4.72828 3637 ft 263 kts 237°
2026-05-07 19:18 52.18711 4.70347 3284 ft 250 kts 237°
2026-05-07 19:18 52.17824 4.68019 2919 ft 233 kts 237°
2026-05-07 19:18 52.16997 4.65838 2568 ft 220 kts 237°
2026-05-07 19:18 52.16251 4.63719 2306 ft 209 kts 253°
2026-05-07 19:19 52.16314 4.61504 2358 ft 194 kts 301°
2026-05-07 19:19 52.17277 4.60199 2355 ft 177 kts 352°
2026-05-07 19:19 52.18496 4.60129 2421 ft 179 kts 354°
2026-05-07 19:19 52.19682 4.59475 2418 ft 178 kts 347°
2026-05-07 19:20 52.20911 4.59302 2288 ft 180 kts
2026-05-07 19:20 52.22155 4.59315 2045 ft 171 kts
2026-05-07 19:20 52.23216 4.59829 1988 ft 152 kts 45°
2026-05-07 19:20 52.23841 4.61114 1865 ft 147 kts 53°
2026-05-07 19:21 52.24469 4.62403 1667 ft 143 kts 53°
2026-05-07 19:21 52.25044 4.63716 1452 ft 141 kts 57°
2026-05-07 19:21 52.25576 4.65066 1273 ft 142 kts 58°
2026-05-07 19:21 52.26085 4.66382 1056 ft 141 kts 57°
2026-05-07 19:22 52.26586 4.67683 828 ft 137 kts 57°
2026-05-07 19:22 52.27101 4.68997 743 ft 135 kts 58°
2026-05-07 19:22 52.27580 4.70304 531 ft 137 kts 57°
2026-05-07 19:22 52.28079 4.71572 364 ft 135 kts 56°
2026-05-07 19:23 52.28590 4.72878 160 ft 134 kts 58°
2026-05-07 19:23 52.29073 4.74147 7 ft 125 kts 58°
2026-05-07 19:23 52.29472 4.75184 0 ft 86 kts 58°
2026-05-07 19:23 52.29691 4.75711 1 ft 20 kts 39°
2026-05-07 19:24 52.29813 4.75830 1 ft 20 kts 28°
2026-05-07 19:24 52.29922 4.75920 1 ft 14 kts 26°
2026-05-07 19:24 52.30014 4.75948 2 ft 14 kts 331°
2026-05-07 19:24 52.30018 4.75811 2 ft 15 kts 237°
2026-05-07 19:25 52.29969 4.75666 2 ft 15 kts 237°
2026-05-07 19:25 52.29914 4.75528 2 ft 15 kts 239°
2026-05-07 19:25 52.29859 4.75389 2 ft 15 kts 230°
2026-05-07 19:25 52.29780 4.75290 2 ft 15 kts 212°
2026-05-07 19:26 52.29714 4.75164 2 ft 15 kts 238°
2026-05-07 19:26 52.29693 4.75045 2 ft 9 kts 257°
2026-05-07 19:26 52.29698 4.74971 2 ft 7 kts 324°
2026-05-07 19:26 52.29704 4.74965 2 ft 0 kts 327°